Time,TemperatureF,DewpointF,PressureIn,WindDirection,WindDirectionDegrees,WindSpeedMPH,WindSpeedGustMPH,Humidity,HourlyPrecipIn,Conditions,Clouds,dailyrainin,SolarRadiationWatts/m^2,SoftwareType,DateUTC
2013-04-12 00:00:00,70.1,67.0,29.87,South,175,0.8,5.0,90,0.00,CLR,OVC,0.00,0.0,WeatherDisplay:10.37,2013-04-12 04:00:00,
2013-04-12 00:05:00,70.1,67.0,29.87,SSE,164,3.5,8.0,90,0.00,CLR,OVC,0.00,0.0,WeatherDisplay:10.37,2013-04-12 04:05:00,
2013-04-12 00:10:00,70.2,67.1,29.87,SSE,157,4.0,5.8,90,0.00,CLR,OVC,0.00,0.0,WeatherDisplay:10.37,2013-04-12 04:10:00,
2013-04-12 00:15:00,70.3,67.2,29.87,SSW,195,5.6,9.2,90,0.00,CLR,OVC,0.00,0.0,WeatherDisplay:10.37,2013-04-12 04:15:00,
2013-04-12 00:20:00,70.4,67.0,29.86,South,178,5.5,10.4,89,0.00,CLR,OVC,0.00,0.0,WeatherDisplay:10.37,2013-04-12 04:20:00,
2013-04-12 00:25:00,70.4,67.0,29.86,South,188,3.6,9.2,89,0.00,CLR,OVC,0.00,0.0,WeatherDisplay:10.37,2013-04-12 04:25:00,
2013-04-12 00:30:00,70.4,67.0,29.86,SE,146,5.4,9.2,89,0.00,CLR,OVC,0.00,0.0,WeatherDisplay:10.37,2013-04-12 04:30:00,
2013-04-12 00:35:00,70.6,67.2,29.86,South,180,6.5,10.4,89,0.00,CLR,OVC,0.00,0.0,WeatherDisplay:10.37,2013-04-12 04:35:00,
2013-04-12 00:40:00,70.7,67.3,29.87,South,175,5.2,15.0,89,0.00,CLR,OVC,0.00,0.0,WeatherDisplay:10.37,2013-04-12 04:40:00,
2013-04-12 00:45:00,70.8,67.1,29.87,SE,134,4.4,9.2,88,0.00,CLR,OVC,0.00,0.0,WeatherDisplay:10.37,2013-04-12 04:45:00,
2013-04-12 00:50:00,70.8,67.1,29.87,South,185,4.8,13.0,88,0.00,CLR,OVC,0.00,0.0,WeatherDisplay:10.37,2013-04-12 04:50:00,
2013-04-12 00:55:00,70.9,67.2,29.87,ESE,112,3.7,11.5,88,0.00,CLR,OVC,0.00,0.0,WeatherDisplay:10.37,2013-04-12 04:55:00,
2013-04-12 01:00:00,70.9,67.2,29.87,SSE,160,9.1,13.8,88,0.00,CLR,OVC,0.00,0.0,WeatherDisplay:10.37,2013-04-12 05:00:00,
2013-04-12 01:05:00,70.9,67.2,29.87,ESE,105,5.5,8.1,88,0.00,CLR,OVC,0.00,0.0,WeatherDisplay:10.37,2013-04-12 05:05:00,
2013-04-12 01:10:00,70.9,67.2,29.88,South,186,4.4,8.0,88,0.00,CLR,OVC,0.00,0.0,WeatherDisplay:10.37,2013-04-12 05:10:00,
2013-04-12 01:15:00,70.9,67.2,29.88,SSW,194,5.5,11.5,88,0.00,CLR,OVC,0.00,0.0,WeatherDisplay:10.37,2013-04-12 05:15:00,
2013-04-12 01:21:00,70.9,67.2,29.88,SE,127,4.5,11.5,88,0.00,CLR,OVC,0.00,0.0,WeatherDisplay:10.37,2013-04-12 05:21:00,
2013-04-12 01:26:00,71.0,66.9,29.88,SSW,202,3.9,12.7,87,0.00,CLR,OVC,0.00,0.0,WeatherDisplay:10.37,2013-04-12 05:26:00,
2013-04-12 01:31:00,71.0,66.9,29.87,SW,223,7.5,10.4,87,0.00,CLR,OVC,0.00,0.0,WeatherDisplay:10.37,2013-04-12 05:31:00,
2013-04-12 01:36:00,71.0,66.9,29.87,SW,227,6.0,11.5,87,0.00,CLR,OVC,0.00,0.0,WeatherDisplay:10.37,2013-04-12 05:36:00,
2013-04-12 01:41:00,71.0,66.9,29.87,SSE,161,6.9,12.7,87,0.00,CLR,OVC,0.00,0.0,WeatherDisplay:10.37,2013-04-12 05:41:00,
2013-04-12 01:46:00,71.0,66.9,29.87,SSE,152,3.5,8.1,87,0.00,CLR,OVC,0.00,0.0,WeatherDisplay:10.37,2013-04-12 05:46:00,
2013-04-12 01:51:00,71.0,66.9,29.86,South,173,6.2,10.4,87,0.00,CLR,OVC,0.00,0.0,WeatherDisplay:10.37,2013-04-12 05:51:00,
2013-04-12 01:56:00,71.0,66.9,29.86,SSW,196,5.2,13.8,87,0.00,CLR,OVC,0.00,0.0,WeatherDisplay:10.37,2013-04-12 05:56:00,
2013-04-12 02:01:00,70.9,66.8,29.86,ESE,117,3.9,8.1,87,0.00,CLR,OVC,0.00,0.0,WeatherDisplay:10.37,2013-04-12 06:01:00,
2013-04-12 02:06:00,70.9,66.8,29.86,SSE,165,9.1,12.7,87,0.00,CLR,OVC,0.00,0.0,WeatherDisplay:10.37,2013-04-12 06:06:00,
2013-04-12 02:11:00,70.9,66.5,29.86,South,173,2.5,11.5,86,0.00,CLR,OVC,0.00,0.0,WeatherDisplay:10.37,2013-04-12 06:11:00,
2013-04-12 02:16:00,70.9,66.5,29.86,SE,145,5.1,12.7,86,0.00,CLR,OVC,0.00,0.0,WeatherDisplay:10.37,2013-04-12 06:16:00,
2013-04-12 02:21:00,70.9,66.5,29.86,South,169,6.1,12.7,86,0.00,CLR,OVC,0.00,0.0,WeatherDisplay:10.37,2013-04-12 06:21:00,
2013-04-12 02:26:00,70.9,66.5,29.86,SSE,150,1.8,3.5,86,0.00,CLR,OVC,0.00,0.0,WeatherDisplay:10.37,2013-04-12 06:26:00,
2013-04-12 02:31:00,70.9,66.8,29.85,SSE,159,9.4,15.0,87,0.00,CLR,OVC,0.00,0.0,WeatherDisplay:10.37,2013-04-12 06:31:00,
2013-04-12 02:36:00,70.9,66.8,29.85,SSE,161,9.3,12.7,87,0.00,CLR,OVC,0.00,0.0,WeatherDisplay:10.37,2013-04-12 06:36:00,
2013-04-12 02:41:00,70.9,66.8,29.85,South,171,9.7,15.0,87,0.00,CLR,OVC,0.00,0.0,WeatherDisplay:10.37,2013-04-12 06:41:00,
2013-04-12 02:46:00,70.9,66.8,29.85,SSE,156,7.6,12.0,87,0.00,CLR,OVC,0.00,0.0,WeatherDisplay:10.37,2013-04-12 06:46:00,
2013-04-12 02:51:00,71.0,66.9,29.85,SW,215,10.4,13.0,87,0.00,CLR,OVC,0.00,0.0,WeatherDisplay:10.37,2013-04-12 06:51:00,
2013-04-12 02:56:00,71.0,66.9,29.85,SSE,165,7.5,9.2,87,0.00,CLR,OVC,0.00,0.0,WeatherDisplay:10.37,2013-04-12 06:56:00,
2013-04-12 03:01:00,71.0,66.9,29.85,SSE,164,3.4,11.5,87,0.00,CLR,OVC,0.00,0.0,WeatherDisplay:10.37,2013-04-12 07:01:00,
2013-04-12 03:06:00,71.0,66.9,29.84,South,176,5.3,15.0,87,0.00,CLR,OVC,0.00,0.0,WeatherDisplay:10.37,2013-04-12 07:06:00,
2013-04-12 03:12:00,71.0,66.9,29.84,SSE,149,4.6,18.4,87,0.00,CLR,OVC,0.00,0.0,WeatherDisplay:10.37,2013-04-12 07:12:00,
2013-04-12 03:17:00,70.9,66.8,29.84,SSE,166,8.8,16.1,87,0.00,CLR,OVC,0.00,0.0,WeatherDisplay:10.37,2013-04-12 07:17:00,
2013-04-12 03:22:00,70.7,66.6,29.84,SSE,147,7.4,11.0,87,0.00,CLR,OVC,0.00,0.0,WeatherDisplay:10.37,2013-04-12 07:22:00,
2013-04-12 03:27:00,70.4,66.3,29.84,South,175,5.3,8.1,87,0.00,CLR,OVC,0.00,0.0,WeatherDisplay:10.37,2013-04-12 07:27:00,
2013-04-12 03:32:00,70.2,66.1,29.83,South,180,7.4,10.4,87,0.00,CLR,OVC,0.00,0.0,WeatherDisplay:10.37,2013-04-12 07:32:00,
2013-04-12 03:37:00,69.9,66.2,29.84,South,170,8.9,16.1,88,0.00,CLR,OVC,0.00,0.0,WeatherDisplay:10.37,2013-04-12 07:37:00,
2013-04-12 03:42:00,69.7,66.0,29.84,SSW,199,7.0,12.7,88,0.00,CLR,OVC,0.00,0.0,WeatherDisplay:10.37,2013-04-12 07:42:00,
2013-04-12 03:47:00,69.5,65.8,29.83,South,171,4.8,16.1,88,0.00,CLR,OVC,0.00,0.0,WeatherDisplay:10.37,2013-04-12 07:47:00,
2013-04-12 03:53:00,69.5,65.8,29.83,South,186,4.6,12.7,88,0.00,CLR,OVC,0.00,0.0,WeatherDisplay:10.37,2013-04-12 07:53:00,
2013-04-12 03:58:00,69.4,65.7,29.83,North,355,8.3,12.7,88,0.00,CLR,OVC,0.00,0.0,WeatherDisplay:10.37,2013-04-12 07:58:00,
2013-04-12 04:03:00,69.2,65.5,29.83,SSE,161,7.7,12.7,88,0.00,CLR,OVC,0.00,0.0,WeatherDisplay:10.37,2013-04-12 08:03:00,
2013-04-12 04:08:00,69.0,65.3,29.83,South,169,7.6,11.0,88,0.00,CLR,OVC,0.00,0.0,WeatherDisplay:10.37,2013-04-12 08:08:00,
2013-04-12 04:13:00,68.9,65.2,29.83,SE,142,5.4,10.4,88,0.00,CLR,OVC,0.00,0.0,WeatherDisplay:10.37,2013-04-12 08:13:00,
2013-04-12 04:18:00,68.7,65.0,29.83,SSW,196,2.8,11.5,88,0.00,CLR,OVC,0.00,0.0,WeatherDisplay:10.37,2013-04-12 08:18:00,
2013-04-12 04:23:00,68.6,64.9,29.83,South,190,5.0,15.0,88,0.00,CLR,OVC,0.00,0.0,WeatherDisplay:10.37,2013-04-12 08:23:00,
2013-04-12 04:28:00,68.6,64.9,29.82,SSE,157,8.0,9.2,88,0.00,CLR,OVC,0.00,0.0,WeatherDisplay:10.37,2013-04-12 08:28:00,
2013-04-12 04:33:00,68.5,64.5,29.82,SE,143,3.5,10.4,87,0.00,CLR,OVC,0.00,0.0,WeatherDisplay:10.37,2013-04-12 08:33:00,
2013-04-12 04:38:00,68.3,64.6,29.82,SSE,159,5.3,12.0,88,0.00,CLR,OVC,0.00,0.0,WeatherDisplay:10.37,2013-04-12 08:38:00,
2013-04-12 04:43:00,68.2,64.5,29.82,South,178,3.8,6.9,88,0.00,CLR,OVC,0.00,0.0,WeatherDisplay:10.37,2013-04-12 08:43:00,
2013-04-12 04:48:00,68.1,64.4,29.82,SSE,149,4.7,9.2,88,0.00,CLR,OVC,0.00,0.0,WeatherDisplay:10.37,2013-04-12 08:48:00,
2013-04-12 04:53:00,68.0,64.3,29.82,SSE,168,6.3,10.4,88,0.00,CLR,OVC,0.00,0.0,WeatherDisplay:10.37,2013-04-12 08:53:00,
2013-04-12 04:58:00,67.9,64.2,29.82,SE,146,6.3,9.2,88,0.00,CLR,OVC,0.00,0.0,WeatherDisplay:10.37,2013-04-12 08:58:00,
2013-04-12 05:03:00,67.9,64.2,29.82,SE,146,6.8,12.7,88,0.00,CLR,OVC,0.00,0.0,WeatherDisplay:10.37,2013-04-12 09:03:00,
2013-04-12 05:08:00,67.9,64.2,29.82,East,93,5.0,8.1,88,0.00,CLR,OVC,0.00,0.0,WeatherDisplay:10.37,2013-04-12 09:08:00,
2013-04-12 05:13:00,67.9,64.2,29.82,South,169,1.6,3.5,88,0.00,CLR,OVC,0.00,0.0,WeatherDisplay:10.37,2013-04-12 09:13:00,
2013-04-12 05:18:00,67.9,64.5,29.82,SSE,155,2.5,9.0,89,0.00,CLR,OVC,0.00,0.0,WeatherDisplay:10.37,2013-04-12 09:18:00,
2013-04-12 05:23:00,67.9,64.5,29.82,South,177,6.3,8.1,89,0.00,CLR,OVC,0.00,0.0,WeatherDisplay:10.37,2013-04-12 09:23:00,
2013-04-12 05:28:00,68.1,64.7,29.82,SSE,163,6.9,11.5,89,0.00,CLR,OVC,0.00,0.0,WeatherDisplay:10.37,2013-04-12 09:28:00,
2013-04-12 05:33:00,68.2,64.8,29.81,SSW,207,5.0,9.2,89,0.00,CLR,OVC,0.00,0.0,WeatherDisplay:10.37,2013-04-12 09:33:00,
2013-04-12 05:38:00,68.3,64.9,29.80,South,180,4.6,11.5,89,0.00,CLR,OVC,0.00,0.0,WeatherDisplay:10.37,2013-04-12 09:38:00,
2013-04-12 05:43:00,68.3,64.9,29.80,South,184,7.7,13.8,89,0.00,CLR,OVC,0.00,0.0,WeatherDisplay:10.37,2013-04-12 09:43:00,
2013-04-12 05:48:00,68.4,65.0,29.81,South,177,7.8,12.7,89,0.00,CLR,OVC,0.00,0.0,WeatherDisplay:10.37,2013-04-12 09:48:00,
2013-04-12 05:53:00,68.6,64.9,29.82,SE,138,6.4,11.5,88,0.00,CLR,OVC,0.00,0.0,WeatherDisplay:10.37,2013-04-12 09:53:00,
2013-04-12 05:58:00,68.6,64.9,29.83,SSW,200,4.2,8.1,88,0.00,CLR,OVC,0.00,0.0,WeatherDisplay:10.37,2013-04-12 09:58:00,
2013-04-12 06:03:00,68.8,65.4,29.84,South,177,5.1,8.1,89,0.00,CLR,OVC,0.00,0.0,WeatherDisplay:10.37,2013-04-12 10:03:00,
2013-04-12 06:08:00,69.1,66.0,29.84,South,184,4.6,8.1,90,0.00,CLR,OVC,0.00,0.0,WeatherDisplay:10.37,2013-04-12 10:08:00,
2013-04-12 06:13:00,69.1,66.4,29.85,SW,219,6.8,12.7,91,0.02,RA,OVC,0.02,0.0,WeatherDisplay:10.37,2013-04-12 10:13:00,
2013-04-12 06:18:00,68.9,66.5,29.85,SSW,205,7.1,13.0,92,0.04,RA,OVC,0.04,0.0,WeatherDisplay:10.37,2013-04-12 10:18:00,
2013-04-12 06:23:00,68.6,66.2,29.85,South,180,9.4,16.1,92,0.06,RA,OVC,0.06,0.0,WeatherDisplay:10.37,2013-04-12 10:23:00,
2013-04-12 06:28:00,68.3,65.9,29.83,SSE,162,5.7,9.2,92,0.07,RA,OVC,0.07,0.0,WeatherDisplay:10.37,2013-04-12 10:28:00,
2013-04-12 06:33:00,68.0,65.9,29.80,East,101,4.4,6.9,93,0.08,RA,OVC,0.08,0.0,WeatherDisplay:10.37,2013-04-12 10:33:00,
2013-04-12 06:38:00,67.8,66.0,29.82,South,170,6.4,10.4,94,0.08,RA,OVC,0.08,0.0,WeatherDisplay:10.37,2013-04-12 10:38:00,
2013-04-12 06:43:00,67.8,66.0,29.82,SSE,154,7.8,11.5,94,0.09,RA,OVC,0.09,0.0,WeatherDisplay:10.37,2013-04-12 10:43:00,
2013-04-12 06:48:00,67.7,65.9,29.81,South,178,6.9,14.0,94,0.10,RA,OVC,0.10,0.0,WeatherDisplay:10.37,2013-04-12 10:48:00,
2013-04-12 06:53:00,67.6,65.8,29.80,SSE,159,4.1,6.9,94,0.10,RA,OVC,0.10,0.0,WeatherDisplay:10.37,2013-04-12 10:53:00,
2013-04-12 06:58:00,67.6,65.8,29.80,SSE,154,8.8,12.7,94,0.10,OVC,,0.10,0.0,WeatherDisplay:10.37,2013-04-12 10:58:00,
2013-04-12 07:03:00,67.6,65.8,29.81,South,178,5.4,11.5,94,0.11,RA,OVC,0.11,0.0,WeatherDisplay:10.37,2013-04-12 11:03:00,
2013-04-12 07:08:00,67.5,66.0,29.82,SSW,194,8.3,11.5,95,0.12,RA,OVC,0.12,0.0,WeatherDisplay:10.37,2013-04-12 11:08:00,
2013-04-12 07:13:00,67.4,65.9,29.81,SSE,153,7.2,10.4,95,0.11,RA,OVC,0.13,0.0,WeatherDisplay:10.37,2013-04-12 11:13:00,
2013-04-12 07:18:00,67.4,65.9,29.81,South,173,3.9,8.1,95,0.10,RA,OVC,0.14,0.0,WeatherDisplay:10.37,2013-04-12 11:18:00,
2013-04-12 07:23:00,67.3,65.8,29.81,South,180,5.1,12.0,95,0.10,RA,OVC,0.16,0.0,WeatherDisplay:10.37,2013-04-12 11:23:00,
2013-04-12 07:28:00,67.3,65.8,29.80,South,186,6.9,11.5,95,0.10,RA,OVC,0.17,0.0,WeatherDisplay:10.37,2013-04-12 11:28:00,
2013-04-12 07:33:00,67.3,66.1,29.80,SSE,157,6.3,12.7,96,0.12,RA,OVC,0.20,0.0,WeatherDisplay:10.37,2013-04-12 11:33:00,
2013-04-12 07:38:00,67.2,66.0,29.81,SW,229,5.5,16.1,96,0.15,RA,OVC,0.23,0.0,WeatherDisplay:10.37,2013-04-12 11:38:00,
2013-04-12 07:43:00,67.2,66.0,29.81,South,180,11.5,19.6,96,0.27,RA,OVC,0.36,0.0,WeatherDisplay:10.37,2013-04-12 11:43:00,
2013-04-12 07:48:00,67.2,66.0,29.81,South,184,7.4,13.8,96,0.35,RA,OVC,0.47,0.0,WeatherDisplay:10.37,2013-04-12 11:48:00,
2013-04-12 07:53:00,67.3,66.4,29.80,ENE,71,2.6,5.8,97,0.43,RA,OVC,0.54,0.0,WeatherDisplay:10.37,2013-04-12 11:53:00,
2013-04-12 07:58:00,67.4,66.5,29.79,SSE,162,1.2,2.3,97,0.46,RA,OVC,0.56,0.0,WeatherDisplay:10.37,2013-04-12 11:58:00,
2013-04-12 08:03:00,67.5,66.6,29.79,ESE,111,5.5,7.0,97,0.47,RA,OVC,0.59,0.0,WeatherDisplay:10.37,2013-04-12 12:03:00,
2013-04-12 08:08:00,67.5,66.6,29.80,South,174,3.9,8.1,97,0.54,RA,OVC,0.68,0.0,WeatherDisplay:10.37,2013-04-12 12:08:00,
2013-04-12 08:13:00,67.5,66.6,29.80,SE,138,3.5,6.9,97,0.65,RA,OVC,0.82,0.0,WeatherDisplay:10.37,2013-04-12 12:13:00,
2013-04-12 08:18:00,67.5,66.6,29.78,SSE,156,1.9,3.5,97,0.78,RA,OVC,0.94,0.0,WeatherDisplay:10.37,2013-04-12 12:18:00,
2013-04-12 08:23:00,67.4,66.5,29.79,East,94,0.9,2.0,97,0.90,RA,OVC,1.06,0.0,WeatherDisplay:10.37,2013-04-12 12:23:00,
2013-04-12 08:28:00,67.4,66.5,29.79,SSE,162,1.9,3.5,97,0.99,RA,OVC,1.17,0.0,WeatherDisplay:10.37,2013-04-12 12:28:00,
2013-04-12 08:33:00,67.4,66.5,29.79,SSE,150,0.2,3.5,97,0.98,RA,OVC,1.18,0.0,WeatherDisplay:10.37,2013-04-12 12:33:00,
2013-04-12 08:39:00,67.4,66.5,29.79,South,180,2.4,4.6,97,0.98,RA,OVC,1.21,0.0,WeatherDisplay:10.37,2013-04-12 12:39:00,
2013-04-12 08:44:00,67.4,66.5,29.78,South,186,0.2,2.3,97,0.91,RA,OVC,1.28,0.0,WeatherDisplay:10.37,2013-04-12 12:44:00,
2013-04-12 08:49:00,67.4,66.5,29.80,SSW,193,2.3,3.5,97,0.84,RA,OVC,1.29,0.0,WeatherDisplay:10.37,2013-04-12 12:49:00,
2013-04-12 08:54:00,67.4,66.5,29.80,SW,221,0.3,4.6,97,0.80,RA,OVC,1.33,0.0,WeatherDisplay:10.37,2013-04-12 12:54:00,
2013-04-12 08:59:00,67.4,66.5,29.80,SSE,152,3.7,5.8,97,0.80,RA,OVC,1.37,0.0,WeatherDisplay:10.37,2013-04-12 12:59:00,
2013-04-12 09:04:00,67.5,66.6,29.80,SSW,192,2.6,5.8,97,0.81,RA,OVC,1.39,0.0,WeatherDisplay:10.37,2013-04-12 13:04:00,
2013-04-12 09:09:00,67.6,66.7,29.79,South,172,2.1,4.6,97,0.75,RA,OVC,1.42,0.0,WeatherDisplay:10.37,2013-04-12 13:09:00,
2013-04-12 09:14:00,67.6,66.7,29.79,SE,133,1.3,6.9,97,0.64,RA,OVC,1.42,0.0,WeatherDisplay:10.37,2013-04-12 13:14:00,
2013-04-12 09:19:00,67.7,67.1,29.78,SSW,192,1.1,4.0,98,0.51,RA,OVC,1.43,0.0,WeatherDisplay:10.37,2013-04-12 13:19:00,
2013-04-12 09:24:00,67.8,67.2,29.79,South,187,3.0,4.0,98,0.37,RA,OVC,1.43,0.0,WeatherDisplay:10.37,2013-04-12 13:24:00,
2013-04-12 09:29:00,67.9,67.3,29.78,SSE,161,3.3,6.9,98,0.27,OVC,,1.43,0.0,WeatherDisplay:10.37,2013-04-12 13:29:00,
2013-04-12 09:34:00,68.0,67.4,29.78,SSE,155,1.7,6.9,98,0.25,OVC,,1.43,0.0,WeatherDisplay:10.37,2013-04-12 13:34:00,
2013-04-12 09:39:00,68.1,67.5,29.78,SSE,149,0.9,3.5,98,0.22,OVC,,1.43,0.0,WeatherDisplay:10.37,2013-04-12 13:39:00,
2013-04-12 09:44:00,68.4,67.8,29.78,SSE,153,6.7,8.1,98,0.16,OVC,,1.43,0.0,WeatherDisplay:10.37,2013-04-12 13:44:00,
2013-04-12 09:49:00,68.5,67.9,29.78,SSE,147,1.9,8.1,98,0.14,OVC,,1.43,0.0,WeatherDisplay:10.37,2013-04-12 13:49:00,
2013-04-12 09:54:00,68.7,68.1,29.77,South,180,2.3,5.8,98,0.10,OVC,,1.43,0.0,WeatherDisplay:10.37,2013-04-12 13:54:00,
2013-04-12 09:59:00,69.3,68.7,29.77,SSE,149,5.2,9.2,98,0.06,OVC,,1.43,0.0,WeatherDisplay:10.37,2013-04-12 13:59:00,
2013-04-12 10:04:00,69.5,68.9,29.78,SW,215,5.0,9.2,98,0.04,OVC,,1.43,0.0,WeatherDisplay:10.37,2013-04-12 14:04:00,
2013-04-12 10:09:00,69.4,68.8,29.78,South,169,2.8,4.6,98,0.01,OVC,,1.43,0.0,WeatherDisplay:10.37,2013-04-12 14:09:00,
2013-04-12 10:14:00,69.4,68.8,29.78,South,187,1.8,5.8,98,0.01,OVC,,1.43,0.0,WeatherDisplay:10.37,2013-04-12 14:14:00,
2013-04-12 10:19:00,69.5,68.9,29.78,WSW,245,3.3,4.6,98,0.02,RA,OVC,1.46,0.0,WeatherDisplay:10.37,2013-04-12 14:19:00,
2013-04-12 10:24:00,69.5,68.9,29.78,SSE,168,4.4,6.0,98,0.04,RA,OVC,1.47,0.0,WeatherDisplay:10.37,2013-04-12 14:24:00,
2013-04-12 10:29:00,69.5,68.6,29.78,SW,225,4.1,8.1,97,0.05,RA,OVC,1.48,0.0,WeatherDisplay:10.37,2013-04-12 14:29:00,
2013-04-12 10:34:00,69.4,68.5,29.78,SSW,194,2.7,6.9,97,0.05,RA,OVC,1.48,0.0,WeatherDisplay:10.37,2013-04-12 14:34:00,
2013-04-12 10:39:00,69.4,68.8,29.78,South,172,0.5,2.3,98,0.05,OVC,,1.48,0.0,WeatherDisplay:10.37,2013-04-12 14:39:00,
2013-04-12 10:44:00,69.4,68.8,29.78,South,175,2.0,4.6,98,0.06,RA,OVC,1.49,0.0,WeatherDisplay:10.37,2013-04-12 14:44:00,
2013-04-12 10:49:00,69.4,68.8,29.78,SSW,198,4.0,5.8,98,0.10,RA,OVC,1.53,0.0,WeatherDisplay:10.37,2013-04-12 14:49:00,
2013-04-12 10:54:00,69.4,68.8,29.78,South,184,3.1,5.8,98,0.12,RA,OVC,1.55,0.0,WeatherDisplay:10.37,2013-04-12 14:54:00,
2013-04-12 10:59:00,69.3,68.7,29.78,SSW,200,1.6,3.5,98,0.12,RA,OVC,1.55,0.0,WeatherDisplay:10.37,2013-04-12 14:59:00,
2013-04-12 11:04:00,69.4,68.8,29.79,South,184,2.0,3.5,98,0.14,RA,OVC,1.57,0.0,WeatherDisplay:10.37,2013-04-12 15:04:00,
2013-04-12 11:09:00,69.4,68.8,29.79,SSE,166,3.1,5.0,98,0.14,RA,OVC,1.57,0.0,WeatherDisplay:10.37,2013-04-12 15:09:00,
2013-04-12 11:14:00,69.5,68.9,29.79,SW,221,3.0,4.6,98,0.14,OVC,,1.57,0.0,WeatherDisplay:10.37,2013-04-12 15:14:00,
2013-04-12 11:19:00,69.6,69.0,29.78,SSW,192,2.4,3.5,98,0.12,OVC,,1.57,0.0,WeatherDisplay:10.37,2013-04-12 15:19:00,
2013-04-12 11:24:00,69.7,69.1,29.78,SW,216,5.1,6.9,98,0.10,OVC,,1.57,0.0,WeatherDisplay:10.37,2013-04-12 15:24:00,
2013-04-12 11:29:00,69.7,69.1,29.78,WSW,241,3.9,6.9,98,0.09,OVC,,1.57,0.0,WeatherDisplay:10.37,2013-04-12 15:29:00,
2013-04-12 11:34:00,69.8,69.2,29.78,SW,223,3.5,4.6,98,0.09,OVC,,1.57,0.0,WeatherDisplay:10.37,2013-04-12 15:34:00,
2013-04-12 11:39:00,69.9,69.3,29.78,SSW,206,4.5,9.2,98,0.10,RA,OVC,1.58,0.0,WeatherDisplay:10.37,2013-04-12 15:39:00,
2013-04-12 11:44:00,70.1,69.5,29.78,WSW,251,5.0,6.9,98,0.09,RA,OVC,1.58,0.0,WeatherDisplay:10.37,2013-04-12 15:44:00,
2013-04-12 11:49:00,70.3,69.7,29.78,SW,236,7.6,15.0,98,0.05,OVC,,1.58,0.0,WeatherDisplay:10.37,2013-04-12 15:49:00,
2013-04-12 11:54:00,70.5,69.9,29.78,SW,232,4.4,8.0,98,0.03,OVC,,1.58,0.0,WeatherDisplay:10.37,2013-04-12 15:54:00,
2013-04-12 11:59:00,70.9,70.3,29.78,SSW,207,5.4,15.0,98,0.03,OVC,,1.58,0.0,WeatherDisplay:10.37,2013-04-12 15:59:00,
2013-04-12 12:04:00,71.4,70.8,29.77,SW,231,6.5,8.1,98,0.01,OVC,,1.58,0.0,WeatherDisplay:10.37,2013-04-12 16:04:00,
2013-04-12 12:09:00,71.7,71.1,29.77,SW,227,8.5,15.0,98,0.01,OVC,,1.58,0.0,WeatherDisplay:10.37,2013-04-12 16:09:00,
2013-04-12 12:14:00,71.7,70.8,29.77,South,180,4.5,12.7,97,0.01,OVC,,1.58,0.0,WeatherDisplay:10.37,2013-04-12 16:14:00,
2013-04-12 12:19:00,71.7,70.8,29.77,South,175,8.5,17.3,97,0.01,OVC,,1.58,0.0,WeatherDisplay:10.37,2013-04-12 16:19:00,
2013-04-12 12:24:00,71.7,70.5,29.77,SW,219,8.6,21.9,96,0.01,OVC,,1.58,0.0,WeatherDisplay:10.37,2013-04-12 16:24:00,
2013-04-12 12:29:00,71.9,70.7,29.77,SW,223,7.6,10.0,96,0.01,OVC,,1.58,0.0,WeatherDisplay:10.37,2013-04-12 16:29:00,
2013-04-12 12:34:00,72.1,70.9,29.77,South,190,7.6,12.7,96,0.01,OVC,,1.58,0.0,WeatherDisplay:10.37,2013-04-12 16:34:00,
2013-04-12 12:39:00,72.3,70.8,29.77,SW,227,6.5,14.0,95,0.00,OVC,,1.58,0.0,WeatherDisplay:10.37,2013-04-12 16:39:00,
2013-04-12 12:44:00,72.6,71.1,29.76,SSW,199,6.7,13.0,95,0.00,OVC,,1.58,0.0,WeatherDisplay:10.37,2013-04-12 16:44:00,
2013-04-12 12:49:00,72.9,71.1,29.76,West,266,7.6,12.7,94,0.00,OVC,,1.58,0.0,WeatherDisplay:10.37,2013-04-12 16:49:00,
2013-04-12 12:54:00,73.3,71.5,29.76,SW,226,9.5,13.0,94,0.00,OVC,,1.58,0.0,WeatherDisplay:10.37,2013-04-12 16:54:00,
2013-04-12 12:59:00,73.7,71.9,29.76,SW,222,5.4,11.5,94,0.00,OVC,,1.58,0.0,WeatherDisplay:10.37,2013-04-12 16:59:00,
2013-04-12 13:05:00,74.1,71.9,29.75,South,186,8.2,11.5,93,0.00,OVC,,1.58,0.0,WeatherDisplay:10.37,2013-04-12 17:05:00,
2013-04-12 13:10:00,74.5,72.0,29.75,South,182,7.2,10.4,92,0.00,OVC,,1.58,0.0,WeatherDisplay:10.37,2013-04-12 17:10:00,
2013-04-12 13:15:00,74.9,71.8,29.75,SW,233,5.7,12.7,90,0.00,OVC,,1.58,0.0,WeatherDisplay:10.37,2013-04-12 17:15:00,
2013-04-12 13:20:00,75.4,72.6,29.74,SSW,192,4.3,8.1,91,0.00,OVC,,1.58,0.0,WeatherDisplay:10.37,2013-04-12 17:20:00,
2013-04-12 13:25:00,75.7,72.2,29.74,South,178,6.5,11.5,89,0.00,OVC,,1.58,0.0,WeatherDisplay:10.37,2013-04-12 17:25:00,
2013-04-12 13:30:00,75.9,72.1,29.74,South,186,7.9,16.1,88,0.00,OVC,,1.58,0.0,WeatherDisplay:10.37,2013-04-12 17:30:00,
2013-04-12 13:35:00,76.2,72.4,29.74,SSE,157,6.6,12.7,88,0.00,OVC,,1.58,0.0,WeatherDisplay:10.37,2013-04-12 17:35:00,
2013-04-12 13:40:00,76.7,71.5,29.74,SW,217,8.4,19.6,84,0.00,OVC,,1.58,0.0,WeatherDisplay:10.37,2013-04-12 17:40:00,
2013-04-12 13:45:00,77.0,71.1,29.74,SSW,192,13.1,19.6,82,0.00,OVC,,1.58,0.0,WeatherDisplay:10.37,2013-04-12 17:45:00,
2013-04-12 13:50:00,77.6,72.0,29.74,SSW,209,10.5,18.4,83,0.00,OVC,,1.58,0.0,WeatherDisplay:10.37,2013-04-12 17:50:00,
2013-04-12 13:55:00,77.9,72.0,29.73,WSW,239,6.8,12.7,82,0.00,OVC,,1.58,0.0,WeatherDisplay:10.37,2013-04-12 17:55:00,
2013-04-12 14:01:00,78.3,71.6,29.72,SE,146,9.8,17.3,80,0.00,OVC,,1.58,0.0,WeatherDisplay:10.37,2013-04-12 18:01:00,
2013-04-12 14:06:00,78.4,71.7,29.72,SW,219,5.7,11.5,80,0.00,OVC,,1.58,0.0,WeatherDisplay:10.37,2013-04-12 18:06:00,
2013-04-12 14:12:00,78.9,71.8,29.72,SSW,205,8.0,16.1,79,0.00,OVC,,1.58,0.0,WeatherDisplay:10.37,2013-04-12 18:12:00,
2013-04-12 14:17:00,79.4,72.3,29.72,SW,227,6.8,9.2,79,0.00,OVC,,1.58,0.0,WeatherDisplay:10.37,2013-04-12 18:17:00,
2013-04-12 14:22:00,79.8,71.9,29.72,SSW,212,8.8,15.0,77,0.00,OVC,,1.58,0.0,WeatherDisplay:10.37,2013-04-12 18:22:00,
2013-04-12 14:29:00,79.5,72.0,29.72,WSW,240,9.4,19.0,78,0.00,OVC,,1.58,0.0,WeatherDisplay:10.37,2013-04-12 18:29:00,
2013-04-12 15:26:00,78.5,71.8,29.69,SSE,157,4.6,13.8,80,0.00,OVC,,1.58,0.0,WeatherDisplay:10.37,2013-04-12 19:26:00,
2013-04-12 15:27:00,78.5,71.8,29.69,SW,217,2.8,13.8,80,0.00,OVC,,1.58,0.0,WeatherDisplay:10.37,2013-04-12 19:27:00,
2013-04-12 15:32:00,78.9,71.8,29.69,SW,223,11.5,18.4,79,0.00,OVC,,1.58,0.0,WeatherDisplay:10.37,2013-04-12 19:32:00,
2013-04-12 15:37:00,78.5,71.4,29.70,SW,228,8.2,16.0,79,0.00,OVC,,1.58,0.0,WeatherDisplay:10.37,2013-04-12 19:37:00,
2013-04-12 15:42:00,78.2,71.2,29.71,SW,221,7.8,13.8,79,0.00,OVC,,1.58,0.0,WeatherDisplay:10.37,2013-04-12 19:42:00,
2013-04-12 15:47:00,77.9,71.2,29.71,SSW,197,7.6,12.7,80,0.00,OVC,,1.58,0.0,WeatherDisplay:10.37,2013-04-12 19:47:00,
2013-04-12 15:52:00,77.4,70.7,29.71,SSE,167,4.9,11.5,80,0.00,OVC,,1.58,0.0,WeatherDisplay:10.37,2013-04-12 19:52:00,
2013-04-12 15:57:00,77.0,70.7,29.71,SW,215,5.2,11.5,81,0.00,OVC,,1.58,0.0,WeatherDisplay:10.37,2013-04-12 19:57:00,
2013-04-12 16:02:00,76.8,70.5,29.72,SSE,167,10.5,15.0,81,0.00,OVC,,1.58,0.0,WeatherDisplay:10.37,2013-04-12 20:02:00,
2013-04-12 16:07:00,76.3,70.4,29.72,South,172,7.2,12.7,82,0.00,OVC,,1.58,0.0,WeatherDisplay:10.37,2013-04-12 20:07:00,
2013-04-12 16:12:00,75.9,70.0,29.71,SSE,150,8.9,17.3,82,0.00,OVC,,1.58,0.0,WeatherDisplay:10.37,2013-04-12 20:12:00,
2013-04-12 16:17:00,75.7,70.2,29.72,SW,229,6.8,15.0,83,0.00,OVC,,1.58,0.0,WeatherDisplay:10.37,2013-04-12 20:17:00,
2013-04-12 16:22:00,75.5,70.3,29.71,SSE,159,8.6,11.5,84,0.00,OVC,,1.58,0.0,WeatherDisplay:10.37,2013-04-12 20:22:00,
2013-04-12 16:27:00,75.3,70.1,29.71,South,179,7.2,12.7,84,0.00,OVC,,1.58,0.0,WeatherDisplay:10.37,2013-04-12 20:27:00,
2013-04-12 16:32:00,75.2,70.0,29.72,South,176,11.1,19.6,84,0.00,OVC,,1.58,0.0,WeatherDisplay:10.37,2013-04-12 20:32:00,
2013-04-12 16:37:00,75.2,70.0,29.72,SSW,206,5.6,13.8,84,0.00,OVC,,1.58,0.0,WeatherDisplay:10.37,2013-04-12 20:37:00,
2013-04-12 16:43:00,75.2,70.0,29.72,SSW,193,5.1,13.8,84,0.00,OVC,,1.58,0.0,WeatherDisplay:10.37,2013-04-12 20:43:00,
2013-04-12 16:48:00,75.2,70.0,29.71,SW,222,10.7,17.3,84,0.00,OVC,,1.58,0.0,WeatherDisplay:10.37,2013-04-12 20:48:00,
2013-04-12 16:53:00,75.1,69.9,29.71,SE,143,6.7,13.8,84,0.00,OVC,,1.58,0.0,WeatherDisplay:10.37,2013-04-12 20:53:00,
2013-04-12 16:58:00,75.0,69.8,29.72,SSE,163,7.1,13.8,84,0.00,OVC,,1.58,0.0,WeatherDisplay:10.37,2013-04-12 20:58:00,
2013-04-12 17:03:00,74.8,69.6,29.72,WSW,250,4.9,16.1,84,0.00,OVC,,1.58,0.0,WeatherDisplay:10.37,2013-04-12 21:03:00,
2013-04-12 17:08:00,74.7,69.9,29.73,SW,226,9.3,11.5,85,0.00,OVC,,1.58,0.0,WeatherDisplay:10.37,2013-04-12 21:08:00,
2013-04-12 17:13:00,74.4,69.6,29.72,SSW,200,9.4,12.7,85,0.00,OVC,,1.58,0.0,WeatherDisplay:10.37,2013-04-12 21:13:00,
2013-04-12 17:18:00,74.2,69.7,29.72,SSW,206,6.6,15.0,86,0.00,OVC,,1.58,0.0,WeatherDisplay:10.37,2013-04-12 21:18:00,
2013-04-12 17:23:00,74.0,69.5,29.72,SSW,202,6.8,13.8,86,0.00,OVC,,1.58,0.0,WeatherDisplay:10.37,2013-04-12 21:23:00,
2013-04-12 17:28:00,73.9,69.4,29.72,SSE,167,9.5,15.0,86,0.00,OVC,,1.58,0.0,WeatherDisplay:10.37,2013-04-12 21:28:00,
2013-04-12 17:33:00,73.8,69.3,29.73,SW,214,7.1,11.5,86,0.00,OVC,,1.58,0.0,WeatherDisplay:10.37,2013-04-12 21:33:00,
2013-04-12 17:38:00,73.7,69.6,29.72,South,187,7.8,16.1,87,0.00,OVC,,1.58,0.0,WeatherDisplay:10.37,2013-04-12 21:38:00,
2013-04-12 17:43:00,73.6,69.5,29.72,SSE,159,9.3,15.0,87,0.00,OVC,,1.58,0.0,WeatherDisplay:10.37,2013-04-12 21:43:00,
2013-04-12 17:48:00,73.6,69.5,29.73,South,185,6.2,11.5,87,0.00,OVC,,1.58,0.0,WeatherDisplay:10.37,2013-04-12 21:48:00,
2013-04-12 17:53:00,73.5,69.4,29.73,South,169,7.0,11.5,87,0.00,OVC,,1.58,0.0,WeatherDisplay:10.37,2013-04-12 21:53:00,
2013-04-12 17:58:00,73.5,69.4,29.73,SSW,205,8.0,15.0,87,0.00,OVC,,1.58,0.0,WeatherDisplay:10.37,2013-04-12 21:58:00,
2013-04-12 18:03:00,73.4,69.3,29.73,SSW,212,6.7,11.5,87,0.00,OVC,,1.58,0.0,WeatherDisplay:10.37,2013-04-12 22:03:00,
2013-04-12 18:08:00,73.1,69.7,29.73,SSW,200,8.8,18.4,89,0.03,RA,OVC,1.61,0.0,WeatherDisplay:10.37,2013-04-12 22:08:00,
2013-04-12 18:13:00,72.3,69.5,29.73,SW,229,8.2,13.8,91,0.04,RA,OVC,1.62,0.0,WeatherDisplay:10.37,2013-04-12 22:13:00,
2013-04-12 18:18:00,71.9,69.4,29.73,SSW,194,7.6,13.8,92,0.04,RA,OVC,1.62,0.0,WeatherDisplay:10.37,2013-04-12 22:18:00,
2013-04-12 18:23:00,71.5,69.4,29.73,SSW,208,5.2,8.1,93,0.04,OVC,,1.62,0.0,WeatherDisplay:10.37,2013-04-12 22:23:00,
2013-04-12 18:28:00,71.3,69.2,29.72,SSW,202,5.7,9.2,93,0.04,OVC,,1.62,0.0,WeatherDisplay:10.37,2013-04-12 22:28:00,
2013-04-12 18:33:00,71.2,69.1,29.72,SSW,209,4.3,6.9,93,0.04,OVC,,1.62,0.0,WeatherDisplay:10.37,2013-04-12 22:33:00,
2013-04-12 18:38:00,71.1,69.0,29.72,SSW,210,4.7,6.9,93,0.04,OVC,,1.62,0.0,WeatherDisplay:10.37,2013-04-12 22:38:00,
2013-04-12 18:43:00,71.0,68.9,29.72,SSW,213,3.6,6.9,93,0.04,OVC,,1.62,0.0,WeatherDisplay:10.37,2013-04-12 22:43:00,
2013-04-12 18:48:00,71.0,68.9,29.72,South,179,2.4,8.1,93,0.04,OVC,,1.62,0.0,WeatherDisplay:10.37,2013-04-12 22:48:00,
2013-04-12 18:53:00,70.9,68.8,29.72,SW,215,4.2,8.1,93,0.04,OVC,,1.62,0.0,WeatherDisplay:10.37,2013-04-12 22:53:00,
2013-04-12 18:58:00,70.9,68.8,29.72,SW,231,3.6,6.0,93,0.04,OVC,,1.62,0.0,WeatherDisplay:10.37,2013-04-12 22:58:00,
2013-04-12 19:03:00,70.9,68.8,29.73,WSW,240,6.5,11.5,93,0.04,OVC,,1.62,0.0,WeatherDisplay:10.37,2013-04-12 23:03:00,
2013-04-12 19:08:00,70.9,68.8,29.73,South,181,5.4,13.8,93,0.01,OVC,,1.62,0.0,WeatherDisplay:10.37,2013-04-12 23:08:00,
2013-04-12 19:13:00,70.9,68.8,29.73,WSW,240,4.8,12.7,93,0.00,OVC,,1.62,0.0,WeatherDisplay:10.37,2013-04-12 23:13:00,
2013-04-12 19:18:00,70.8,68.4,29.72,South,186,8.6,12.7,92,0.00,OVC,,1.62,0.0,WeatherDisplay:10.37,2013-04-12 23:18:00,
2013-04-12 19:23:00,70.8,68.4,29.72,SSW,212,5.5,11.0,92,0.00,OVC,,1.62,0.0,WeatherDisplay:10.37,2013-04-12 23:23:00,
2013-04-12 19:28:00,70.7,68.3,29.73,SSW,195,6.1,8.1,92,0.00,OVC,,1.62,0.0,WeatherDisplay:10.37,2013-04-12 23:28:00,
2013-04-12 19:33:00,70.7,68.3,29.73,SSW,198,4.8,6.9,92,0.00,OVC,,1.62,0.0,WeatherDisplay:10.37,2013-04-12 23:33:00,
2013-04-12 19:38:00,70.6,68.2,29.73,South,190,5.8,9.0,92,0.00,OVC,,1.62,0.0,WeatherDisplay:10.37,2013-04-12 23:38:00,
2013-04-12 19:43:00,70.6,68.2,29.73,South,175,5.0,11.5,92,0.00,OVC,,1.62,0.0,WeatherDisplay:10.37,2013-04-12 23:43:00,
2013-04-12 19:48:00,70.6,68.2,29.72,South,170,4.8,8.1,92,0.00,OVC,,1.62,0.0,WeatherDisplay:10.37,2013-04-12 23:48:00,
2013-04-12 19:53:00,70.5,68.1,29.73,SSW,207,5.1,10.4,92,0.00,OVC,,1.62,0.0,WeatherDisplay:10.37,2013-04-12 23:53:00,
2013-04-12 19:58:00,70.4,68.3,29.72,SW,217,5.4,6.9,93,0.00,OVC,,1.62,0.0,WeatherDisplay:10.37,2013-04-12 23:58:00,
2013-04-12 20:03:00,70.3,68.2,29.72,SSW,207,5.3,8.1,93,0.00,OVC,,1.62,0.0,WeatherDisplay:10.37,2013-04-13 00:03:00,
2013-04-12 20:08:00,70.2,68.1,29.72,SSW,196,3.1,4.6,93,0.00,CLR,OVC,1.62,0.0,WeatherDisplay:10.37,2013-04-13 00:08:00,
2013-04-12 20:13:00,70.1,68.0,29.72,South,182,2.3,3.5,93,0.00,CLR,OVC,1.62,0.0,WeatherDisplay:10.37,2013-04-13 00:13:00,
2013-04-12 20:18:00,70.1,68.0,29.72,West,259,3.9,6.0,93,0.00,CLR,OVC,1.62,0.0,WeatherDisplay:10.37,2013-04-13 00:18:00,
2013-04-12 20:23:00,69.9,67.8,29.72,SW,230,4.1,9.2,93,0.00,CLR,OVC,1.62,0.0,WeatherDisplay:10.37,2013-04-13 00:23:00,
2013-04-12 20:28:00,69.8,67.7,29.72,SSW,194,4.2,6.9,93,0.00,CLR,OVC,1.62,0.0,WeatherDisplay:10.37,2013-04-13 00:28:00,
2013-04-12 20:33:00,69.8,67.7,29.73,South,190,5.6,10.4,93,0.00,CLR,OVC,1.62,0.0,WeatherDisplay:10.37,2013-04-13 00:33:00,
2013-04-12 20:38:00,69.7,67.6,29.73,SSE,163,3.6,10.4,93,0.00,CLR,OVC,1.62,0.0,WeatherDisplay:10.37,2013-04-13 00:38:00,
2013-04-12 20:43:00,69.7,67.6,29.73,SSW,199,3.9,11.5,93,0.00,CLR,OVC,1.62,0.0,WeatherDisplay:10.37,2013-04-13 00:43:00,
2013-04-12 20:48:00,69.7,67.6,29.74,South,175,7.1,8.1,93,0.00,CLR,OVC,1.62,0.0,WeatherDisplay:10.37,2013-04-13 00:48:00,
2013-04-12 20:53:00,69.7,67.6,29.74,SSE,160,6.0,10.4,93,0.00,CLR,OVC,1.62,0.0,WeatherDisplay:10.37,2013-04-13 00:53:00,
2013-04-12 20:58:00,69.8,67.4,29.74,South,174,2.4,4.6,92,0.00,CLR,OVC,1.62,0.0,WeatherDisplay:10.37,2013-04-13 00:58:00,
2013-04-12 21:03:00,69.8,67.4,29.75,South,176,4.5,10.4,92,0.00,CLR,OVC,1.62,0.0,WeatherDisplay:10.37,2013-04-13 01:03:00,
2013-04-12 21:08:00,69.7,67.3,29.75,SSW,196,3.8,8.1,92,0.00,CLR,OVC,1.62,0.0,WeatherDisplay:10.37,2013-04-13 01:08:00,
2013-04-12 21:13:00,69.7,67.3,29.75,SSW,208,3.7,5.8,92,0.00,CLR,OVC,1.62,0.0,WeatherDisplay:10.37,2013-04-13 01:13:00,
2013-04-12 21:18:00,69.7,67.3,29.75,SSE,165,6.5,14.0,92,0.00,CLR,OVC,1.62,0.0,WeatherDisplay:10.37,2013-04-13 01:18:00,
2013-04-12 21:23:00,69.7,67.3,29.75,SW,223,3.0,8.1,92,0.00,CLR,OVC,1.62,0.0,WeatherDisplay:10.37,2013-04-13 01:23:00,
2013-04-12 21:28:00,69.6,67.2,29.75,WSW,244,3.6,6.9,92,0.00,CLR,OVC,1.62,0.0,WeatherDisplay:10.37,2013-04-13 01:28:00,
2013-04-12 21:33:00,69.6,67.2,29.75,SW,218,5.4,10.4,92,0.00,CLR,OVC,1.62,0.0,WeatherDisplay:10.37,2013-04-13 01:33:00,
2013-04-12 21:38:00,69.5,67.1,29.75,SW,235,4.3,6.9,92,0.00,CLR,OVC,1.62,0.0,WeatherDisplay:10.37,2013-04-13 01:38:00,
2013-04-12 21:44:00,69.5,67.1,29.75,SW,217,2.2,5.8,92,0.00,CLR,OVC,1.62,0.0,WeatherDisplay:10.37,2013-04-13 01:44:00,
2013-04-12 21:49:00,69.4,67.0,29.75,South,188,3.8,12.7,92,0.00,CLR,OVC,1.62,0.0,WeatherDisplay:10.37,2013-04-13 01:49:00,
2013-04-12 21:54:00,69.4,67.0,29.75,SSW,213,4.1,6.9,92,0.00,CLR,OVC,1.62,0.0,WeatherDisplay:10.37,2013-04-13 01:54:00,
2013-04-12 21:59:00,69.4,67.0,29.74,SW,214,2.1,6.9,92,0.00,CLR,OVC,1.62,0.0,WeatherDisplay:10.37,2013-04-13 01:59:00,
2013-04-12 22:04:00,69.4,67.3,29.74,SW,236,2.7,4.6,93,0.00,CLR,OVC,1.62,0.0,WeatherDisplay:10.37,2013-04-13 02:04:00,
2013-04-12 22:09:00,69.3,67.2,29.74,SW,232,4.6,7.0,93,0.00,CLR,OVC,1.62,0.0,WeatherDisplay:10.37,2013-04-13 02:09:00,
2013-04-12 22:14:00,69.3,67.2,29.74,South,184,3.2,6.9,93,0.00,CLR,OVC,1.62,0.0,WeatherDisplay:10.37,2013-04-13 02:14:00,
2013-04-12 22:19:00,69.3,67.2,29.73,SW,232,3.7,6.9,93,0.00,CLR,OVC,1.62,0.0,WeatherDisplay:10.37,2013-04-13 02:19:00,
2013-04-12 22:24:00,69.2,67.1,29.73,SW,215,4.1,6.9,93,0.00,CLR,OVC,1.62,0.0,WeatherDisplay:10.37,2013-04-13 02:24:00,
2013-04-12 22:29:00,69.2,67.1,29.73,SW,232,4.0,5.0,93,0.00,CLR,OVC,1.62,0.0,WeatherDisplay:10.37,2013-04-13 02:29:00,
2013-04-12 22:34:00,69.1,67.0,29.73,South,176,1.5,4.6,93,0.00,CLR,OVC,1.62,0.0,WeatherDisplay:10.37,2013-04-13 02:34:00,
2013-04-12 22:39:00,69.1,67.3,29.73,SW,220,3.1,9.0,94,0.00,CLR,OVC,1.62,0.0,WeatherDisplay:10.37,2013-04-13 02:39:00,
2013-04-12 22:44:00,69.0,67.2,29.73,South,190,1.6,4.6,94,0.00,CLR,OVC,1.62,0.0,WeatherDisplay:10.37,2013-04-13 02:44:00,
2013-04-12 22:49:00,69.0,67.2,29.73,SSW,208,2.7,3.5,94,0.00,CLR,OVC,1.62,0.0,WeatherDisplay:10.37,2013-04-13 02:49:00,
2013-04-12 22:54:00,68.9,67.1,29.73,South,182,3.5,4.6,94,0.00,CLR,OVC,1.62,0.0,WeatherDisplay:10.37,2013-04-13 02:54:00,
2013-04-12 22:59:00,68.9,67.1,29.73,SSW,194,2.0,5.0,94,0.00,CLR,OVC,1.62,0.0,WeatherDisplay:10.37,2013-04-13 02:59:00,
2013-04-12 23:04:00,68.8,67.0,29.74,South,169,2.1,6.9,94,0.00,CLR,OVC,1.62,0.0,WeatherDisplay:10.37,2013-04-13 03:04:00,
2013-04-12 23:09:00,68.8,67.3,29.74,SSW,196,1.7,3.5,95,0.00,CLR,OVC,1.62,0.0,WeatherDisplay:10.37,2013-04-13 03:09:00,
2013-04-12 23:14:00,68.8,67.3,29.74,SSW,194,2.0,4.6,95,0.00,CLR,OVC,1.62,0.0,WeatherDisplay:10.37,2013-04-13 03:14:00,
2013-04-12 23:19:00,68.8,67.3,29.74,South,181,0.8,3.5,95,0.00,CLR,OVC,1.62,0.0,WeatherDisplay:10.37,2013-04-13 03:19:00,
2013-04-12 23:24:00,68.7,67.2,29.75,SSW,212,1.9,3.5,95,0.00,CLR,OVC,1.62,0.0,WeatherDisplay:10.37,2013-04-13 03:24:00,
2013-04-12 23:29:00,68.6,67.1,29.75,SW,234,0.7,2.3,95,0.00,CLR,OVC,1.62,0.0,WeatherDisplay:10.37,2013-04-13 03:29:00,
2013-04-12 23:34:00,68.5,67.0,29.75,SW,215,3.4,3.5,95,0.00,CLR,OVC,1.62,0.0,WeatherDisplay:10.37,2013-04-13 03:34:00,
2013-04-12 23:39:00,68.5,67.0,29.75,SSW,209,1.0,3.5,95,0.00,CLR,OVC,1.62,0.0,WeatherDisplay:10.37,2013-04-13 03:39:00,
2013-04-12 23:44:00,68.4,66.9,29.75,SSW,196,4.6,7.0,95,0.00,CLR,OVC,1.62,0.0,WeatherDisplay:10.37,2013-04-13 03:44:00,
2013-04-12 23:49:00,68.3,66.8,29.75,SW,216,2.0,3.5,95,0.00,CLR,OVC,1.62,0.0,WeatherDisplay:10.37,2013-04-13 03:49:00,
2013-04-12 23:54:00,68.3,66.8,29.75,SSW,197,3.1,6.0,95,0.00,CLR,OVC,1.62,0.0,WeatherDisplay:10.37,2013-04-13 03:54:00,
2013-04-12 23:59:00,68.2,66.7,29.75,SW,230,2.2,4.6,95,0.00,CLR,OVC,1.62,0.0,WeatherDisplay:10.37,2013-04-13 03:59:00,